Time,TemperatureF,DewpointF,PressureIn,WindDirection,WindDirectionDegrees,WindSpeedMPH,WindSpeedGustMPH,Humidity,HourlyPrecipIn,Conditions,Clouds,dailyrainin,SoftwareType,DateUTC
2013-01-06 14:02:00,32.0,3.0,-100.00,South,190,9.0,14.0,28,-99.99,,,-99.99,,2013-01-06 21:02:00,
2013-01-06 14:22:00,32.0,3.0,-100.00,South,189,8.0,12.0,28,-99.99,,,-99.99,,2013-01-06 21:22:00,
2013-01-06 14:33:00,32.0,3.0,-100.00,South,189,8.0,12.0,28,-99.99,,,-99.99,,2013-01-06 21:33:00,
2013-01-06 14:42:00,33.0,3.0,-100.00,SSW,205,5.0,10.0,28,-99.99,,,-99.99,,2013-01-06 21:42:00,
2013-01-06 14:53:00,33.0,3.0,-100.00,SSW,205,5.0,10.0,28,-99.99,,,-99.99,,2013-01-06 21:53:00,
2013-01-06 15:02:00,32.0,2.0,-100.00,SW,216,6.0,14.0,28,-99.99,,,-99.99,,2013-01-06 22:02:00,
2013-01-06 15:12:00,32.0,3.0,-100.00,North,1,3.0,7.0,28,-99.99,,,-99.99,,2013-01-06 22:12:00,
2013-01-06 15:22:00,32.0,3.0,-100.00,North,1,3.0,7.0,28,-99.99,,,-99.99,,2013-01-06 22:22:00,
2013-01-06 15:32:00,32.0,3.0,-100.00,North,1,3.0,7.0,28,-99.99,,,-99.99,,2013-01-06 22:32:00,
2013-01-06 15:43:00,33.0,1.0,-100.00,North,9,1.0,3.0,25,-99.99,,,-99.99,,2013-01-06 22:43:00,
2013-01-06 15:52:00,33.0,1.0,-100.00,North,9,1.0,3.0,25,-99.99,,,-99.99,,2013-01-06 22:52:00,
2013-01-06 16:02:00,33.0,3.0,-100.00,SSE,168,3.0,7.0,27,-99.99,,,-99.99,,2013-01-06 23:02:00,
2013-01-06 16:12:00,33.0,5.0,-100.00,South,170,6.0,11.0,30,-99.99,,,-99.99,,2013-01-06 23:12:00,
2013-01-06 16:22:00,33.0,5.0,-100.00,South,170,6.0,11.0,30,-99.99,,,-99.99,,2013-01-06 23:22:00,
2013-01-06 16:32:00,33.0,5.0,-100.00,South,170,6.0,11.0,30,-99.99,,,-99.99,,2013-01-06 23:32:00,
2013-01-06 16:42:00,33.0,2.0,-100.00,WNW,296,1.0,5.0,26,-99.99,,,-99.99,,2013-01-06 23:42:00,
2013-01-06 16:53:00,33.0,2.0,-100.00,WNW,296,1.0,5.0,26,-99.99,,,-99.99,,2013-01-06 23:53:00,
2013-01-06 17:02:00,33.0,4.0,-100.00,SW,233,2.0,5.0,28,-99.99,,,-99.99,,2013-01-07 00:02:00,
2013-01-06 17:12:00,32.0,2.0,-100.00,WSW,248,3.0,13.0,27,-99.99,,,-99.99,,2013-01-07 00:12:00,
2013-01-06 17:22:00,32.0,2.0,-100.00,WSW,248,3.0,13.0,27,-99.99,,,-99.99,,2013-01-07 00:22:00,
2013-01-06 17:32:00,32.0,2.0,-100.00,WSW,248,3.0,13.0,27,-99.99,,,-99.99,,2013-01-07 00:32:00,
2013-01-06 17:42:00,29.0,1.0,-100.00,SW,216,7.0,13.0,28,-99.99,,,-99.99,,2013-01-07 00:42:00,
2013-01-06 17:53:00,29.0,1.0,-100.00,SW,216,7.0,13.0,28,-99.99,,,-99.99,,2013-01-07 00:53:00,
2013-01-06 18:02:00,30.0,0.0,-100.00,SSW,202,9.0,12.0,27,-99.99,,,-99.99,,2013-01-07 01:02:00,
2013-01-06 18:12:00,29.0,0.0,-100.00,SSW,200,8.0,14.0,27,-99.99,,,-99.99,,2013-01-07 01:12:00,
2013-01-06 18:22:00,29.0,0.0,-100.00,SSW,200,8.0,14.0,27,-99.99,,,-99.99,,2013-01-07 01:22:00,
2013-01-06 18:32:00,29.0,0.0,-100.00,SSW,200,8.0,14.0,27,-99.99,,,-99.99,,2013-01-07 01:32:00,
2013-01-06 18:42:00,29.0,0.0,-100.00,SSW,192,8.0,15.0,27,-99.99,,,-99.99,,2013-01-07 01:42:00,
2013-01-06 18:53:00,29.0,0.0,-100.00,SSW,192,8.0,15.0,27,-99.99,,,-99.99,,2013-01-07 01:53:00,
2013-01-06 19:02:00,30.0,-1.0,-100.00,SSW,195,7.0,12.0,26,-99.99,,,-99.99,,2013-01-07 02:02:00,
2013-01-06 19:12:00,30.0,-1.0,-100.00,SSW,193,10.0,17.0,26,-99.99,,,-99.99,,2013-01-07 02:12:00,
2013-01-06 19:22:00,30.0,-1.0,-100.00,SSW,193,10.0,17.0,26,-99.99,,,-99.99,,2013-01-07 02:22:00,
2013-01-06 19:32:00,30.0,-1.0,-100.00,SSW,193,10.0,17.0,26,-99.99,,,-99.99,,2013-01-07 02:32:00,
2013-01-06 19:42:00,29.0,-1.0,-100.00,SSW,210,5.0,12.0,26,-99.99,,,-99.99,,2013-01-07 02:42:00,
2013-01-06 19:53:00,29.0,-1.0,-100.00,SSW,210,5.0,12.0,26,-99.99,,,-99.99,,2013-01-07 02:53:00,
2013-01-06 20:02:00,29.0,-1.0,-100.00,SSW,210,8.0,13.0,25,-99.99,,,-99.99,,2013-01-07 03:02:00,
2013-01-06 20:12:00,30.0,-2.0,-100.00,NW,305,3.0,8.0,25,-99.99,,,-99.99,,2013-01-07 03:12:00,
2013-01-06 20:22:00,30.0,-2.0,-100.00,NW,305,3.0,8.0,25,-99.99,,,-99.99,,2013-01-07 03:22:00,
2013-01-06 20:32:00,30.0,-2.0,-100.00,NW,305,3.0,8.0,25,-99.99,,,-99.99,,2013-01-07 03:32:00,
2013-01-06 20:42:00,30.0,0.0,-100.00,NNE,12,2.0,5.0,26,-99.99,,,-99.99,,2013-01-07 03:42:00,
2013-01-06 20:53:00,30.0,0.0,-100.00,NNE,12,2.0,5.0,26,-99.99,,,-99.99,,2013-01-07 03:53:00,
2013-01-06 21:02:00,30.0,0.0,-100.00,NE,39,2.0,4.0,27,-99.99,,,-99.99,,2013-01-07 04:02:00,
2013-01-06 21:12:00,29.0,1.0,-100.00,North,355,3.0,4.0,28,-99.99,,,-99.99,,2013-01-07 04:12:00,
2013-01-06 21:22:00,29.0,1.0,-100.00,North,355,3.0,4.0,28,-99.99,,,-99.99,,2013-01-07 04:22:00,
2013-01-06 21:32:00,29.0,1.0,-100.00,North,355,3.0,4.0,28,-99.99,,,-99.99,,2013-01-07 04:32:00,
2013-01-06 21:42:00,28.0,0.0,-100.00,West,280,1.0,2.0,29,-99.99,,,-99.99,,2013-01-07 04:42:00,
2013-01-06 21:52:00,28.0,0.0,-100.00,West,280,1.0,2.0,29,-99.99,,,-99.99,,2013-01-07 04:52:00,
2013-01-06 22:02:00,28.0,0.0,-100.00,North,0,0.0,0.0,29,-99.99,,,-99.99,,2013-01-07 05:02:00,
2013-01-06 22:12:00,28.0,0.0,-100.00,SSW,199,1.0,3.0,28,-99.99,,,-99.99,,2013-01-07 05:12:00,
2013-01-06 22:22:00,28.0,0.0,-100.00,SSW,199,1.0,3.0,28,-99.99,,,-99.99,,2013-01-07 05:22:00,
2013-01-06 22:32:00,28.0,0.0,-100.00,SSW,199,1.0,3.0,28,-99.99,,,-99.99,,2013-01-07 05:32:00,
2013-01-06 22:42:00,27.0,1.0,-100.00,SSE,154,1.0,3.0,32,-99.99,,,-99.99,,2013-01-07 05:42:00,
2013-01-06 22:53:00,27.0,1.0,-100.00,SSE,154,1.0,3.0,32,-99.99,,,-99.99,,2013-01-07 05:53:00,
2013-01-06 23:02:00,27.0,-1.0,-100.00,WNW,303,1.0,2.0,29,-99.99,,,-99.99,,2013-01-07 06:02:00,
2013-01-06 23:12:00,26.0,1.0,-100.00,NNW,335,2.0,4.0,32,-99.99,,,-99.99,,2013-01-07 06:12:00,
2013-01-06 23:22:00,26.0,1.0,-100.00,NNW,335,2.0,4.0,32,-99.99,,,-99.99,,2013-01-07 06:22:00,
2013-01-06 23:32:00,26.0,1.0,-100.00,NNW,335,2.0,4.0,32,-99.99,,,-99.99,,2013-01-07 06:32:00,
2013-01-06 23:42:00,23.0,4.0,-100.00,NNW,340,3.0,6.0,41,-99.99,,,-99.99,,2013-01-07 06:42:00,
2013-01-06 23:52:00,23.0,4.0,-100.00,NNW,340,3.0,6.0,41,-99.99,,,-99.99,,2013-01-07 06:52:00,